Погода в Ладисполи

Италия     41°57′09″N   12°04′30″E
В апреле 2022 года жителям России запретили посещать сайт meteo.paraplan.net по решению Генеральной прокуратуры. Аудитория сайта уменьшилась в 10 раз. Владельцы сайта не видят смысла в поддержке погодного сервера в таких условиях. Сайт будет закрыт в октябре.
темп.,
°C
ветер,
м/с
пор.,
м/с
влажн.,
%
обл.,
%
осадки,
мм/ч
давл.,
гПа
погр.,
м
4 октября, вт
вт423:00+18с11825 0.0 101851
02:00+17всв22800 0.0 101835
05:00+17всв23805 0.0 101856
08:00+17всв22775 0.0 101955
11:00+23ююз11555 0.0 1021614
14:00+23зюз335618 0.0 1021876
17:00+22з456683 0.0 1021504
20:00+19сз3482100 0.0 1022183
5 октября, ср
ср523:00+18с22877 0.0 102383
02:00+17ссв11854 0.0 102434
05:00+17св11850 0.0 102431
08:00+17всв11810 0.0 102442
11:00+22юз21620 0.0 1026513
14:00+23зюз22550 0.0 1025818
17:00+22зюз33575 0.0 1025303
20:00+19сз237397 0.0 1026105
6 октября, чт
чт623:00+18ссз2280100 0.0 102791
02:00+17ссв1282100 0.0 102762
05:00+17ссв1178100 0.0 102641
08:00+17св1173100 0.0 102638
11:00+22з1255100 0.0 1027451
14:00+23з3355100 0.0 1026631
17:00+22зсз4564100 0.0 1025271
20:00+19ссз3374100 0.0 1026105
7 октября, пт
пт723:00+19с2272100 0.0 102657
02:00+18ссв1171100 0.0 102536
05:00+17всв1172100 0.0 102434
08:00+18всв1172100 0.0 102438
11:00+22ю1156100 0.0 1024412
14:00+23юз3156100 0.0 1023625
17:00+22з226090 0.0 1022361
20:00+19сз117389 0.0 102262
8 октября, сб
сб823:00+18с117611 0.0 102275
02:00+17ссв118063 0.0 102261
05:00+16св11825 0.0 102136
08:00+16ссв11795 0.0 102133
11:00+22зюз11561 0.0 1021524
14:00+23зюз33560 0.0 1020729
17:00+22з34574 0.0 1020445
20:00+18сз2370100 0.0 1020115